Pagina principale
METAR-TAF:

METAR-TAF

Aeroporti :

York Airport

York, Pennsylvania, Stati Uniti

latitudine: 39-55-10N, longitudine: 076-52-37W, altezza: 146 m

Osservazione

Il bollettino è stato emesso 53 minuti fa, alle 21:53 UTC
Vento 7 kt da ovest/nord-ovest
Temperature 6°C
Umidità 61%
Pressione 1018 hPa
Visibilità: 16.1 km
Cielo coperto ad un'altezza di 4800 ft

METAR: KTHV 202153Z AUTO 29007KT 10SM OVC048 06/M01 A3005 RMK AO2 SLP180 T00561011

Ora: 17:46 (22:46 UTC)


TAF: mancante

Osservazioni e previsioni meteorologiche di più di 4000 aeroporti (messaggi METAR e TAF).

Le stazioni disponibili sono rappresentate dai dischi gialli e rossi sulla carta.

Puntare il mouse per vedere il nome della stazione.

Clicca sopra per visualizzare le osservazioni e previsioni meteorologiche.

Per cambiare la mappa : fare clic sui pulsanti verdi con una croce nera per ingrandire, il pulsante verde con un trattino per diminuire, o sulla freccia verde per le mappe adiacenti.


METAR-TAF: